Tracking 31027 objects as of 19-Jul-2025
HD Live streaming from Space Station
objects crossing your sky now

STARLINK-5049

Track STARLINK-5049 now!
10-day predictions
STARLINK-5049 is classified as:


NORAD ID: 57246
Int'l Code: 2023-094AE
Perigee: 565.3 km
Apogee: 567.1 km
Inclination: 43.0 °
Period: 95.8 minutes
Semi major axis: 6937 km
RCS: Unknown
Launch date: July 7, 2023
Source: United States (US)
Launch site: AIR FORCE WESTERN TEST RANGE (AFWTR)
Your satellite tracking list
LANDSAT 5
Track 1 satellite(s)




NASA's NSSDC Master Catalog

Two Line Element Set (TLE):
1 57246U 23094AE  25199.38201581 -.00000184  00000-0  14391-5 0  9993
2 57246  43.0023 210.5156 0001319 282.9669  77.1026 15.02531632112021
Source of the keplerian elements: AFSPC